カタログに戻る

KUIPER-00623

運用中通信LEO
NORAD 69780·PAYLOAD·🇺🇸 United States

打ち上げ Jul 2, 2026 から Cape Canaveral Space Force Station

Loading…

次のパス (今後24時間)

TLE

最新Source: CelesTrak SupGP

元期: Sep 14, 2026, 16:52 UTC

1 69780C 26151T   26257.70287037 -.00000359  00000+0 -46877-4 0  2572
2 69780  51.8964 257.3430 0001776 100.1340 286.1836 14.80044950    19

AllMySatでKUIPER-00623をリアルタイム追跡

Download on the App Store